Time[GMT],current_u[cm/s](10m),current_v[cm/s](10m),current_u[cm/s](14m),current_v[cm/s](14m),current_u[cm/s](18m),current_v[cm/s](18m),current_u[cm/s](22m),current_v[cm/s](22m),current_u[cm/s](26m),current_v[cm/s](26m),current_u[cm/s](30m),current_v[cm/s](30m),current_u[cm/s](34m),current_v[cm/s](34m),current_u[cm/s](38m),current_v[cm/s](38m),current_u[cm/s](42m),current_v[cm/s](42m),current_u[cm/s](46m),current_v[cm/s](46m),current_u[cm/s](50m),current_v[cm/s](50m),current_u[cm/s](54m),current_v[cm/s](54m)
2003-04-25 23:00,-4.40,-11.87,-7.49,-8.70,-7.97,-9.57,-8.56,-15.87,-6.61,-13.23,-4.62,-11.83,-3.75,-11.58,-3.79,-11.07,-3.40,-9.92,-3.16,-8.92,-2.56,-8.12,-2.25,-6.68
2003-04-26 00:00,-6.20,-21.54,-9.93,-13.98,-10.48,-13.51,-10.71,-18.16,-8.72,-15.30,-6.80,-14.02,-5.67,-12.86,-4.27,-11.94,-5.76,-11.85,-4.95,-11.41,-3.02,-11.58,-4.40,-11.14
2003-04-26 01:00,-5.38,-22.24,-6.08,-15.79,-4.52,-15.44,-4.97,-18.59,-4.07,-15.21,-4.08,-11.89,-2.23,-12.19,-2.59,-10.94,-3.11,-11.29,-1.43,-12.06,-1.28,-11.50,-0.21,-10.88
2003-04-26 02:00,-8.22,-24.31,-8.65,-16.63,-5.63,-15.55,-7.66,-20.82,-7.26,-16.75,-7.28,-15.61,-6.96,-14.17,-6.28,-13.66,-6.10,-12.46,-5.55,-12.93,-4.96,-13.91,-4.01,-13.95
2003-04-26 03:00,4.44,-28.90,2.59,-18.82,-1.36,-14.85,1.94,-22.02,2.52,-20.40,3.69,-19.02,3.79,-17.22,4.70,-16.03,3.64,-14.14,3.60,-16.55,4.69,-17.07,4.70,-16.03
2003-04-26 04:00,1.83,-21.63,5.03,-14.27,-1.83,-8.12,-3.66,-10.83,-0.26,-12.14,-0.46,-10.74,-0.66,-10.39,-0.99,-9.23,-1.13,-7.29,-1.13,-7.29,-0.64,-6.84,0.05,-7.06
2003-04-26 05:00,0.77,-25.16,2.50,-19.26,-0.35,-11.13,2.27,-12.98,5.91,-13.70,5.78,-14.36,5.12,-14.24,4.15,-13.37,2.43,-10.64,1.66,-10.86,0.35,-10.30,2.16,-8.64
2003-04-26 06:00,-3.16,-25.25,1.62,-16.91,0.04,-11.74,0.87,-14.63,2.95,-14.65,3.19,-15.11,3.60,-15.09,2.35,-14.72,1.74,-11.88,0.86,-12.44,0.64,-12.40,1.16,-9.86
2003-04-26 07:00,-5.99,-17.22,-1.07,-12.58,0.37,-8.53,-1.12,-9.16,1.92,-9.96,3.50,-10.02,1.96,-10.47,1.38,-10.63,0.81,-9.34,1.07,-9.16,1.29,-9.20,1.67,-6.91
2003-04-26 08:00,-8.66,-11.53,-6.96,-5.84,-5.35,-3.10,-4.39,-5.73,-3.48,-5.99,-2.08,-5.07,-3.74,-5.44,-4.46,-4.40,-4.87,-4.41,-4.38,-4.69,-4.05,-4.39,-2.61,-3.97
2003-04-26 09:00,-11.59,-6.03,-12.02,-2.72,-11.47,0.46,-10.30,-4.72,-8.46,-2.43,-8.98,-1.33,-10.48,-3.00,-10.05,-2.67,-9.44,-0.83,-9.02,-0.82,-8.47,-2.01,-6.44,-2.57
2003-04-26 10:00,-10.18,-8.02,-10.69,-6.60,-9.50,-4.60,-8.84,-10.54,-9.16,-12.30,-10.22,-11.88,-9.51,-9.28,-8.85,-8.68,-8.26,-8.92,-7.70,-8.35,-6.60,-7.82,-5.24,-7.85
2003-04-26 11:00,-6.10,-9.55,-6.89,-4.99,-7.00,-3.88,-9.89,-10.12,-11.13,-10.16,-8.99,-10.38,-9.10,-9.99,-8.03,-9.38,-7.77,-7.74,-6.27,-7.52,-5.35,-7.46,-3.72,-7.72
2003-04-26 12:00,-9.06,-23.92,-10.56,-13.95,-12.06,-11.99,-13.48,-21.55,-12.84,-21.26,-12.66,-20.07,-12.58,-20.36,-10.61,-19.58,-9.36,-19.23,-8.46,-18.76,-12.75,-16.14,-7.03,-17.93
2003-04-26 13:00,-5.36,-22.66,-7.65,-11.77,-7.88,-8.81,-6.93,-17.90,-6.47,-17.35,-5.57,-16.47,-5.19,-15.64,-4.17,-15.55,-4.38,-14.47,-3.15,-14.43,-2.25,-14.27,-1.26,-14.09
2003-04-26 14:00,-5.59,-16.79,-5.18,-9.50,-5.60,-7.33,-3.48,-11.09,-2.61,-11.57,-3.24,-11.54,-3.67,-11.14,-2.77,-9.95,-2.29,-9.08,-1.12,-9.16,-0.18,-8.79,0.14,-7.76
2003-04-26 15:00,-1.68,-24.62,-4.42,-18.33,-5.63,-14.10,-1.63,-18.98,-0.11,-18.86,-1.86,-18.53,-2.72,-19.19,-2.47,-18.60,-3.55,-18.81,-3.47,-19.10,-2.88,-18.62,-2.15,-17.89
2003-04-26 16:00,-10.39,-23.99,-10.83,-19.54,-13.20,-14.19,-10.85,-16.95,-9.39,-17.67,-9.38,-18.09,-9.86,-16.77,-9.71,-16.20,-9.97,-15.65,-9.39,-16.22,-9.35,-16.00,-7.87,-16.09
2003-04-26 17:00,5.53,-27.65,-0.46,-21.25,-2.06,-16.40,3.52,-19.17,4.48,-21.08,3.45,-20.02,2.66,-19.42,3.85,-18.87,4.07,-18.18,4.94,-18.66,5.90,-17.66,7.23,-17.59
2003-04-26 18:00,-1.41,-20.48,-2.90,-13.83,-8.19,-8.07,-2.19,-12.69,-2.40,-13.38,-3.56,-13.71,-2.89,-12.79,-2.28,-12.72,-3.09,-12.43,-2.43,-12.56,-0.99,-11.42,0.88,-10.67
2003-04-26 19:00,-3.06,-19.08,-1.62,-15.03,-3.80,-10.35,-2.42,-12.24,-3.22,-12.37,-5.11,-13.01,-5.26,-12.12,-4.21,-11.09,-4.84,-11.06,-4.39,-10.83,-3.71,-10.64,-1.57,-10.12
2003-04-26 20:00,-3.85,-15.25,-6.18,-12.90,-5.06,-8.84,-1.34,-9.85,-3.79,-11.07,-3.64,-11.24,-1.95,-11.69,-1.23,-10.96,-1.94,-10.65,-2.70,-10.55,-1.83,-11.03,1.09,-7.80
2003-04-26 21:00,1.73,-15.11,-1.97,-12.01,-0.67,-8.20,3.80,-10.35,1.62,-10.36,1.85,-10.81,2.04,-10.03,2.25,-8.93,2.70,-8.69,3.98,-8.43,4.02,-8.21,4.88,-7.23
2003-04-26 22:00,-1.85,-5.52,-4.95,-5.58,-4.32,-5.61,-1.34,-6.94,-3.11,-6.93,-2.67,-7.74,-2.58,-6.98,-1.52,-7.41,-1.16,-7.20,-0.86,-6.07,0.02,-5.51,1.49,-4.46
2003-04-26 23:00,-7.89,-4.03,-6.80,-1.33,-8.94,-3.29,-9.05,-5.09,-10.09,-7.26,-8.54,-6.51,-7.78,-5.87,-7.95,-5.30,-6.75,-4.75,-6.80,-3.51,-6.10,-2.68,-4.57,-2.56
2003-04-27 00:00,-4.70,-13.00,-2.87,-12.48,-4.37,-11.24,-5.19,-13.45,-6.73,-13.89,-6.54,-14.57,-5.40,-13.82,-5.61,-13.47,-5.25,-12.53,-5.11,-12.28,-4.62,-11.83,-4.11,-11.79
2003-04-27 01:00,1.85,-11.54,3.81,-15.45,1.06,-15.30,3.61,-12.59,1.35,-13.76,1.85,-13.72,2.47,-14.06,3.52,-13.35,2.97,-12.88,3.43,-11.60,4.75,-11.85,6.66,-11.61
2003-04-27 02:00,-1.28,-12.23,-0.04,-14.37,-0.78,-16.87,4.52,-14.31,3.91,-13.65,1.68,-14.19,0.85,-13.49,0.56,-12.84,1.10,-12.90,-0.18,-17.53,3.77,-10.99,2.90,-11.55
2003-04-27 03:00,-4.30,-16.21,5.01,-21.45,2.10,-23.64,0.05,-22.66,-0.86,-20.95,-0.47,-20.84,0.25,-20.11,1.04,-19.57,0.83,-19.94,1.10,-19.45,-3.01,-21.77,3.70,-17.25
2003-04-27 04:00,-10.87,-12.17,3.33,-19.23,3.39,-22.33,-1.30,-20.87,-3.96,-19.55,-2.91,-18.52,-1.96,-17.83,-1.18,-18.02,-1.47,-18.11,-1.41,-16.84,-0.24,-17.65,0.80,-18.39
2003-04-27 05:00,-24.21,-9.54,-11.28,-12.91,-2.40,-19.21,-3.18,-18.29,-5.59,-18.97,-6.77,-19.94,-6.53,-18.93,-5.44,-18.41,-5.46,-18.32,-4.21,-17.96,-2.73,-17.32,16.12,-7.97
2003-04-27 06:00,-20.62,-1.75,-11.18,-6.01,-1.50,-11.46,-1.72,-11.42,-3.84,-10.57,-2.76,-12.13,-2.35,-13.57,-1.70,-13.28,-1.04,-13.41,-4.79,-13.75,-2.87,-16.12,3.76,-9.12
2003-04-27 07:00,-23.21,-1.77,-18.51,-4.37,-10.15,-11.03,-7.05,-11.70,-8.74,-7.60,-10.16,-6.66,-9.15,-9.07,-8.58,-10.37,-7.63,-11.13,-6.07,-11.10,-10.32,-11.18,-3.98,-3.53
2003-04-27 08:00,-17.97,-1.20,-18.64,-0.66,-17.15,-3.67,-15.93,-7.58,-8.97,-11.52,-5.54,-11.89,-4.70,-10.81,-4.34,-12.06,-3.37,-14.38,0.88,-15.77,2.90,-14.46,-0.19,-12.02
2003-04-27 09:00,-14.99,-11.58,-18.81,-12.05,-17.38,-12.68,-15.72,-10.85,-15.21,-10.81,-13.37,-9.97,-11.93,-10.29,-9.64,-13.17,-8.67,-16.22,-8.76,-16.97,-4.67,-17.46,-10.01,-15.87
2003-04-27 10:00,-25.49,-15.94,-22.07,-16.63,-21.97,-17.33,-25.05,-17.48,-21.36,-18.40,-17.37,-20.69,-17.45,-23.31,-21.27,-23.78,-24.62,-21.52,-25.31,-20.57,-27.26,-18.12,-19.18,-12.57
2003-04-27 11:00,-13.66,-22.75,-10.76,-23.79,-9.36,-22.14,-12.67,-20.38,-10.51,-22.47,-10.47,-23.70,-11.08,-23.77,-10.84,-24.23,-11.43,-23.25,-11.23,-22.15,-13.99,-24.50,-7.65,-19.05
2003-04-27 12:00,-15.93,-18.09,-11.42,-19.30,-9.53,-19.38,-16.67,-16.95,-16.01,-17.08,-15.08,-16.70,-12.36,-17.48,-10.90,-17.48,-12.74,-17.59,-11.77,-17.00,-10.85,-16.95,-8.94,-15.98
2003-04-27 13:00,-11.20,-26.62,-6.53,-25.49,-4.63,-23.38,-9.52,-23.74,-10.51,-23.92,-11.28,-24.87,-13.89,-25.21,-14.80,-23.49,-13.82,-22.17,-13.04,-23.09,-10.24,-23.43,-8.62,-22.55
2003-04-27 14:00,2.30,-23.99,2.73,-22.21,0.86,-22.22,2.71,-21.07,0.32,-21.44,-2.99,-21.87,-3.36,-20.21,-2.62,-20.62,-1.67,-19.20,-1.08,-16.54,-0.51,-14.92,0.17,-14.72
2003-04-27 15:00,-9.29,-26.38,-5.43,-24.96,-7.04,-23.34,-9.53,-26.97,-9.15,-26.86,-7.91,-26.09,-8.30,-24.02,-7.29,-23.21,-8.49,-22.62,-9.73,-24.12,-8.39,-18.63,-5.52,-15.94
2003-04-27 16:00,-10.77,-24.83,-6.15,-20.28,-6.56,-17.38,-5.81,-19.66,-5.87,-19.06,-5.31,-18.48,-4.82,-18.75,-5.15,-19.78,-6.66,-19.59,-9.82,-18.73,-14.47,-13.41,-14.98,-8.35
2003-04-27 17:00,-1.16,-24.99,1.99,-21.80,3.14,-19.28,3.95,-21.75,3.52,-22.81,2.00,-22.21,2.99,-19.85,3.67,-19.34,3.01,-19.21,3.79,-17.95,3.26,-17.89,-0.23,-12.97
2003-04-27 18:00,-3.67,-21.65,-0.45,-20.93,0.73,-19.24,-0.34,-21.32,-1.22,-21.15,-2.82,-20.99,-2.14,-19.75,-1.73,-18.28,-1.70,-17.65,-1.66,-16.70,-1.14,-16.35,-0.45,-13.65
2003-04-27 19:00,-0.56,-12.54,-1.88,-13.75,-1.59,-13.67,3.06,-11.40,4.37,-11.23,4.84,-10.37,5.89,-8.92,5.89,-8.19,4.62,-7.41,4.20,-6.29,3.66,-5.50,4.11,-3.09
2003-04-27 20:00,-5.79,-9.57,-1.93,-10.33,-1.62,-10.66,-3.26,-10.40,-3.25,-10.81,-3.18,-10.69,-2.98,-10.63,-3.58,-10.39,-3.66,-8.64,-3.28,-6.35,-1.95,-3.37,0.22,-0.77
2003-04-27 21:00,-9.85,-17.18,-6.43,-14.95,-5.25,-14.72,-7.54,-15.06,-8.13,-15.54,-8.67,-15.49,-9.31,-15.05,-9.49,-14.06,-8.44,-12.30,-6.20,-10.31,-4.43,-7.41,-5.01,-6.12
2003-04-27 22:00,-12.64,-15.79,-7.82,-11.92,-6.25,-10.12,-8.26,-12.56,-8.19,-12.44,-8.60,-11.73,-7.48,-11.30,-7.08,-10.87,-6.91,-9.26,-5.71,-6.94,-5.32,-5.38,-7.44,-3.80
2003-04-27 23:00,-12.40,-16.98,-6.75,-13.48,-5.66,-11.82,-9.14,-13.13,-9.23,-11.70,-9.29,-11.51,-9.55,-10.96,-9.52,-10.32,-6.24,-9.07,-5.93,-9.09,-7.05,-9.51,-8.04,-6.78
2003-04-28 00:00,-9.84,-19.36,-6.84,-17.15,-5.56,-16.16,-5.12,-16.97,-6.69,-17.31,-9.74,-16.84,-10.69,-15.34,-8.93,-13.48,-8.05,-12.19,-7.68,-11.67,-6.90,-10.40,-4.54,-9.94
2003-04-28 01:00,-8.10,-17.10,-6.21,-16.45,-7.21,-14.76,-10.64,-17.30,-11.32,-17.50,-10.92,-17.80,-11.19,-17.57,-11.15,-17.35,-9.83,-16.86,-9.43,-16.44,-8.85,-15.23,-8.50,-13.15
2003-04-28 02:00,-7.79,-24.70,-3.59,-21.21,-0.71,-18.93,-2.19,-20.29,-2.30,-20.63,-1.64,-20.76,-2.80,-20.36,-1.31,-21.18,-1.20,-21.57,-1.57,-21.36,-1.77,-19.96,-5.26,-17.94
2003-04-28 03:00,-11.49,-25.24,-9.83,-22.69,-9.07,-19.87,-10.76,-19.42,-10.35,-18.68,-9.20,-17.62,-8.95,-17.76,-7.81,-17.74,-8.00,-18.52,-6.67,-19.18,-5.48,-19.36,-6.22,-18.95
2003-04-28 04:00,-4.08,-25.31,-2.04,-21.91,-2.27,-20.00,-6.16,-23.51,-6.93,-21.54,-7.19,-19.54,-7.55,-19.02,-7.30,-18.43,-7.07,-17.42,-5.35,-17.24,-4.60,-18.07,-3.40,-17.52
2003-04-28 05:00,-5.18,-25.10,-2.70,-21.79,-2.25,-20.10,-4.24,-23.69,-3.98,-21.32,-5.97,-19.81,-7.07,-16.70,-8.14,-15.13,-7.44,-15.03,-6.99,-14.80,-6.11,-16.42,-5.01,-16.63
2003-04-28 06:00,-2.52,-22.78,0.28,-20.21,-0.11,-18.13,-1.53,-19.69,-0.16,-19.40,1.78,-19.26,3.79,-17.95,3.08,-15.45,1.61,-12.86,1.66,-11.59,3.51,-11.89,3.43,-10.88
2003-04-28 07:00,-7.12,-20.87,-3.16,-18.38,-1.80,-16.95,-2.18,-18.52,-1.22,-18.24,-1.22,-18.24,0.48,-17.65,2.79,-16.26,4.82,-12.45,2.19,-10.19,-0.01,-7.60,-1.41,-4.15
2003-04-28 08:00,-2.96,-16.87,-0.63,-11.94,1.60,-9.94,2.02,-12.84,2.95,-13.20,3.90,-13.97,6.00,-13.68,8.34,-12.38,9.54,-9.33,7.07,-5.05,4.56,-1.40,2.47,-0.64
2003-04-28 09:00,-4.33,-13.93,-2.59,-10.94,-3.01,-8.35,-4.83,-9.29,-4.19,-9.32,-3.99,-9.67,-2.61,-9.38,-0.55,-9.31,2.37,-6.81,4.67,-1.78,4.22,1.62,4.49,-0.06
2003-04-28 10:00,-7.28,-17.80,-4.88,-13.47,-4.88,-11.28,-8.93,-13.48,-8.35,-13.32,-7.60,-12.69,-7.30,-13.02,-5.46,-12.18,-2.11,-10.07,0.69,-4.59,-1.40,-3.11,4.43,-3.83
2003-04-28 11:00,-0.60,-18.59,1.80,-14.26,2.25,-12.57,0.04,-13.93,-0.11,-13.76,-0.87,-12.94,-2.68,-11.69,-0.75,-10.10,2.08,-9.08,4.80,-6.95,6.16,-3.33,4.27,-2.21
2003-04-28 12:00,-2.67,-18.24,-0.03,-14.05,0.77,-12.47,-2.12,-14.75,-1.73,-13.19,-1.71,-12.56,-1.46,-11.97,-1.46,-11.24,-0.06,-10.32,3.48,-8.88,4.85,-5.68,4.37,-4.36
2003-04-28 13:00,-4.72,-18.00,0.05,-13.61,1.32,-10.75,-2.52,-13.00,-4.41,-12.19,-4.85,-11.38,-5.94,-10.13,-5.39,-9.87,-3.37,-8.56,-2.09,-7.57,-4.47,-6.90,-6.68,-5.35
2003-04-28 14:00,-3.40,-23.34,-1.05,-18.09,-0.01,-15.92,-3.35,-19.16,-5.23,-19.50,-5.96,-18.77,-3.79,-16.90,-3.71,-14.28,-3.78,-14.40,-2.42,-12.97,-4.34,-12.06,-6.50,-9.98
2003-04-28 15:00,-1.48,-19.88,-1.30,-17.23,-1.36,-15.58,-3.69,-19.78,-3.73,-20.00,-2.89,-18.93,-2.19,-18.83,-0.72,-18.52,-0.32,-14.86,-0.40,-14.57,-0.69,-13.93,-1.47,-13.01
2003-04-28 16:00,-4.05,-21.45,-3.13,-15.57,-4.49,-14.81,-9.51,-20.52,-6.71,-19.40,-4.76,-19.67,-3.98,-20.59,-3.47,-19.82,-2.61,-18.85,-2.63,-18.75,-2.32,-18.04,-3.97,-16.64
2003-04-28 17:00,-1.62,-27.72,-1.05,-19.55,-2.30,-18.45,-7.87,-30.24,-10.18,-30.90,-11.24,-29.02,-8.34,-26.42,-4.73,-24.87,-2.89,-25.48,-2.68,-25.11,-3.63,-24.34,-4.43,-23.01
2003-04-28 18:00,-0.64,-17.35,-2.82,-12.67,-4.22,-12.13,-8.10,-18.55,-9.57,-18.87,-11.93,-17.88,-10.96,-14.38,-8.38,-12.49,-5.32,-12.66,-3.09,-12.43,-2.24,-12.50,-3.34,-11.57
2003-04-28 19:00,4.81,-12.77,1.96,-7.55,-0.42,-6.15,-3.57,-11.84,-5.40,-10.91,-5.97,-10.03,-5.60,-7.33,-3.39,-5.24,-0.26,-4.55,2.82,-5.85,3.89,-6.69,3.01,-4.34
2003-04-28 20:00,-3.04,-19.49,-2.78,-10.26,-3.28,-7.81,-8.11,-12.73,-9.62,-11.08,-11.19,-9.24,-10.87,-7.07,-7.23,-5.61,-4.39,-5.73,-2.42,-7.15,-0.64,-7.57,0.09,-5.38
2003-04-28 21:00,-9.31,-20.15,-5.13,-12.60,-4.47,-9.08,-7.08,-13.06,-7.65,-11.04,-8.25,-7.88,-7.58,-5.50,-4.10,-4.92,-1.81,-6.76,-1.24,-8.37,0.45,-8.09,-0.02,-5.73
2003-04-28 22:00,-22.64,-12.11,-16.52,-7.34,-12.96,-6.32,-15.05,-9.20,-14.79,-6.84,-15.01,-4.62,-15.49,-1.11,-14.58,1.85,-11.64,2.49,-8.02,0.40,-6.35,-1.09,-5.61,-3.27
2003-04-28 23:00,-17.60,-6.09,-12.66,-0.09,-8.75,0.40,-10.45,-3.83,-10.19,-2.19,-9.92,1.21,-8.53,3.27,-7.22,5.21,-4.57,5.76,-2.90,3.95,-3.20,2.83,-3.83,1.40
2003-04-29 00:00,-15.56,-7.06,-11.84,-5.16,-9.60,-5.35,-9.20,-4.20,-8.56,-1.73,-7.84,0.14,-5.85,1.55,-3.34,1.85,-2.18,0.73,-2.02,0.15,-2.17,-0.41,-2.90,-1.14
2003-04-29 01:00,-14.55,-11.66,-14.60,-2.42,-14.22,0.60,-14.27,-3.57,-13.28,-4.85,-12.26,-2.58,-11.04,-2.13,-9.04,-0.41,-6.28,0.49,-3.35,-2.10,-2.65,-3.46,-3.11,-4.74
2003-04-29 02:00,-8.64,-17.77,-9.46,-9.47,-7.54,-4.55,-9.36,-8.72,-8.86,-11.18,-9.06,-9.77,-8.25,-8.61,-6.41,-8.49,-4.06,-9.07,-2.72,-9.73,-2.65,-11.06,-3.19,-11.73
2003-04-29 03:00,-1.13,-22.17,-7.05,-16.06,-5.98,-8.89,-7.71,-8.66,-6.33,-5.87,-5.69,-5.90,-6.16,-4.99,-6.01,-3.70,-4.65,-2.27,-3.68,-3.14,-4.67,-4.77,-5.45,-6.04
2003-04-29 04:00,-6.84,-17.88,-3.61,-14.98,-2.69,-14.19,-0.84,-13.76,1.40,-11.04,1.71,-10.33,1.73,-10.01,1.01,-11.88,0.97,-12.83,-0.43,-13.02,-1.55,-12.72,-2.71,-12.32
2003-04-29 05:00,-8.45,-24.58,-3.22,-22.15,-3.43,-19.60,-2.62,-22.08,0.87,-20.45,1.32,-18.76,2.87,-17.28,2.88,-19.46,1.93,-20.15,1.63,-19.82,0.86,-19.31,-1.38,-17.67
2003-04-29 06:00,-8.71,-17.89,-4.80,-12.30,-3.13,-11.20,-3.52,-14.95,-1.92,-13.97,1.08,-12.49,3.54,-11.99,2.98,-11.84,1.94,-12.55,0.74,-12.38,0.08,-10.80,-1.43,-9.88
2003-04-29 07:00,-1.80,-13.31,1.40,-8.86,2.96,-5.60,4.09,-10.27,5.53,-9.86,6.41,-9.29,5.78,-10.72,4.43,-10.38,3.40,-8.60,3.06,-7.76,2.59,-6.85,2.66,-6.00
2003-04-29 08:00,0.24,-9.19,3.39,-8.91,4.26,-5.44,4.28,-8.03,5.89,-7.47,6.66,-8.70,5.26,-8.90,4.83,-7.77,4.98,-5.75,4.80,-4.76,4.40,-3.00,2.49,-0.33
2003-04-29 09:00,-0.73,-7.60,1.07,-7.70,0.54,-5.88,1.03,-9.38,1.71,-9.60,1.59,-9.53,0.44,-9.86,0.85,-7.66,0.29,-5.74,0.33,-4.07,1.20,-3.09,1.64,-1.72
2003-04-29 10:00,-7.59,-1.45,-2.88,-3.01,-1.87,-2.20,-5.27,-3.38,-3.84,-5.47,-3.10,-5.15,-2.33,-3.48,-3.49,-3.08,-2.26,-2.63,-2.46,-1.95,-2.40,-0.69,-2.53,0.84
2003-04-29 11:00,-10.52,-3.22,-7.80,-2.55,-6.15,-3.95,-5.21,-7.94,-4.80,-9.39,-4.71,-11.86,-4.21,-12.55,-4.58,-11.61,-4.56,-10.57,-3.33,-9.07,-3.30,-7.71,-3.18,-7.05
2003-04-29 12:00,-11.31,3.52,-7.82,2.23,-5.93,-0.35,-9.75,-3.00,-8.76,-2.82,-10.78,-3.40,-11.89,-3.51,-11.32,-2.62,-10.37,-3.39,-10.31,-3.58,-10.12,-2.07,-9.34,-0.08
2003-04-29 13:00,-11.44,-3.28,-8.47,-3.47,-8.19,-5.89,-12.16,-9.10,-12.64,-9.97,-14.73,-9.22,-13.62,-7.65,-13.41,-7.28,-11.68,-8.97,-11.51,-10.27,-11.08,-10.35,-7.39,-9.40
2003-04-29 14:00,-2.29,-6.90,-1.52,-8.13,-5.71,-7.67,-12.56,-9.53,-13.25,-8.58,-13.63,-7.97,-11.70,-7.83,-9.62,-7.44,-8.60,-8.09,-8.11,-7.63,-7.29,-8.33,-6.64,-8.04
2003-04-29 15:00,1.06,-11.66,0.96,-11.69,-4.81,-9.70,-11.98,-14.46,-12.07,-15.22,-10.91,-14.57,-9.16,-13.03,-5.98,-11.80,-6.02,-12.02,-6.82,-10.69,-6.24,-9.80,-5.40,-10.91
2003-04-29 16:00,8.39,-16.21,3.60,-12.91,-1.57,-12.31,-4.33,-20.80,-4.71,-20.59,-3.80,-19.40,-2.07,-17.45,-0.18,-16.80,0.58,-16.17,-0.27,-14.64,0.08,-12.25,-0.40,-13.12
2003-04-29 17:00,7.41,-18.58,4.40,-14.24,-1.20,-9.60,-4.67,-16.01,-4.21,-16.50,-2.92,-15.92,-1.29,-15.45,-0.56,-13.27,-0.74,-11.55,0.44,-10.59,0.44,-9.86,0.41,-9.04
2003-04-29 18:00,-0.44,-27.49,-2.91,-19.25,-2.14,-15.39,-5.11,-24.25,-4.81,-21.67,-5.32,-20.98,-5.63,-20.65,-4.89,-19.61,-3.95,-17.78,-3.98,-18.41,-3.14,-18.79,-1.29,-15.45
2003-04-29 19:00,0.34,-20.40,0.38,-14.77,-2.91,-11.97,-6.16,-18.41,-6.08,-18.70,-5.29,-17.85,-5.08,-16.02,-2.91,-14.15,-1.75,-13.50,-1.55,-12.72,-1.17,-11.88,-0.16,-8.89
2003-04-29 20:00,-1.40,-24.85,-0.93,-15.98,-2.48,-11.32,-4.21,-17.96,-3.77,-18.04,-3.47,-18.37,-1.62,-17.21,-1.68,-14.84,0.11,-13.08,1.12,-10.81,1.75,-10.11,1.86,-8.31
2003-04-29 21:00,-8.90,-15.04,-5.65,-9.32,-4.47,-8.36,-10.02,-12.23,-8.20,-12.03,-5.33,-12.24,-3.57,-11.12,-5.17,-9.91,-4.92,-7.86,-4.50,-3.89,-4.86,-1.91,-5.42,-1.04
2003-04-29 22:00,-14.38,-12.24,-6.96,-8.76,-5.67,-6.72,-11.09,-8.49,-9.69,-8.29,-7.93,-8.62,-5.51,-7.62,-4.40,-4.59,-5.66,-2.77,-5.12,0.09,-4.55,3.17,-5.93,5.06
2003-04-29 23:00,-10.36,-15.04,-5.50,-12.40,-4.82,-10.75,-8.15,-12.95,-6.69,-12.22,-4.27,-11.94,-1.88,-11.57,-0.86,-9.71,-1.63,-6.29,-3.84,-4.74,-2.41,-3.19,-2.29,-1.80
2003-04-30 00:00,-14.18,-14.05,-7.01,-10.75,-4.66,-9.14,-4.88,-9.10,-3.47,-8.59,-1.43,-9.15,-1.64,-8.79,-4.51,-7.12,-5.20,-6.90,-7.66,-5.21,-7.39,-4.72,-5.77,-3.11
2003-04-30 01:00,-6.21,-12.81,-2.64,-10.02,-1.46,-9.05,0.26,-10.33,0.50,-6.83,-1.90,-6.79,-4.25,-9.85,-5.70,-9.85,-6.50,-9.25,-5.76,-8.21,-5.25,-7.44,-5.68,-7.77
2003-04-30 02:00,-7.88,-16.41,-5.37,-11.74,-4.14,-10.24,-6.14,-13.41,-5.09,-10.20,-6.25,-10.84,-7.53,-9.65,-8.62,-8.40,-7.41,-9.72,-7.15,-9.54,-8.05,-10.01,-11.61,-10.30
2003-04-30 03:00,-5.00,-18.49,-4.23,-12.45,-3.26,-9.67,-4.07,-15.21,-3.60,-13.93,-5.92,-13.45,-5.80,-12.07,-4.88,-12.01,-4.73,-12.17,-5.50,-11.67,-7.05,-10.97,-9.11,-11.04
2003-04-30 04:00,-3.46,-17.32,-1.96,-14.92,-2.43,-12.56,-2.84,-17.67,-3.72,-18.23,-4.98,-17.45,-5.30,-15.25,-5.51,-13.44,-6.42,-13.18,-6.47,-12.26,-6.97,-11.98,-6.94,-10.62
2003-04-30 05:00,0.29,-19.16,-0.12,-16.26,-1.17,-14.07,-1.90,-20.94,-2.16,-21.11,-2.92,-19.56,-4.62,-18.70,-4.34,-16.43,-3.02,-15.95,-2.44,-15.79,-2.50,-17.05,-4.46,-15.64
2003-04-30 06:00,-1.37,-19.53,-1.04,-16.32,-1.58,-13.35,-3.38,-18.34,-2.44,-20.15,-1.69,-18.79,-1.96,-17.10,-1.56,-17.41,-3.41,-14.60,-1.21,-13.56,-0.80,-13.54,-0.77,-12.91
2003-04-30 07:00,-2.98,-18.64,-2.50,-17.05,-2.24,-16.14,-2.48,-21.10,-0.94,-21.39,0.31,-21.76,1.41,-19.05,2.13,-17.59,1.86,-16.63,1.11,-14.77,-0.50,-13.15,-1.60,-11.48
2003-04-30 08:00,-1.87,-14.89,-2.41,-12.65,-1.05,-11.95,-1.85,-16.76,-1.91,-15.11,-1.61,-13.26,-0.62,-12.35,0.70,-10.41,1.05,-8.75,0.98,-7.42,1.19,-4.86,0.32,-2.93
2003-04-30 09:00,-5.90,-21.87,-3.73,-16.36,-3.98,-14.04,-6.81,-17.97,-5.40,-17.46,-5.73,-15.58,-6.03,-15.25,-4.82,-12.93,-3.57,-11.84,-3.27,-9.26,0.95,-7.32,4.37,-5.82
2003-04-30 10:00,-4.82,-18.75,-3.56,-12.26,-2.67,-9.92,-5.24,-16.90,-5.72,-13.08,-3.34,-11.57,-3.84,-10.57,-5.12,-8.64,-3.63,-6.56,-2.36,-4.84,-0.78,-1.26,2.03,-0.56
2003-04-30 11:00,-12.43,-16.15,-5.75,-10.80,-3.92,-8.82,-6.91,-12.90,-7.96,-9.98,-6.26,-7.93,-4.86,-6.28,-5.70,-4.44,-3.99,-3.85,-2.29,-3.26,-3.86,-0.69,-2.60,1.44
2003-04-30 12:00,-11.78,-20.23,-6.61,-12.51,-4.91,-10.46,-10.14,-16.53,-10.34,-13.27,-9.25,-11.29,-8.10,-9.50,-4.68,-8.73,-4.83,-7.11,-4.82,-4.61,-4.35,-3.33,-3.27,-0.21
2003-04-30 13:00,-10.52,-18.83,-8.24,-11.52,-7.60,-6.86,-11.50,-8.50,-11.15,-6.84,-10.71,-6.19,-9.86,-5.53,-8.18,-4.84,-4.20,-4.95,-4.53,-4.52,-6.58,-2.82,-7.03,-2.33
2003-04-30 14:00,-12.29,-19.54,-6.99,-12.62,-6.10,-8.82,-9.32,-11.41,-9.43,-8.84,-8.74,-8.33,-8.95,-6.52,-8.06,-6.37,-6.09,-6.32,-7.30,-5.01,-7.28,-3.65,-5.92,-2.22
2003-04-30 15:00,-9.17,-18.44,-4.81,-10.43,-2.00,-7.54,-4.74,-10.31,-5.60,-9.51,-7.33,-8.55,-6.71,-7.44,-5.57,-7.42,-5.83,-6.15,-5.81,-4.06,-4.65,-3.00,-4.16,-4.73
2003-04-30 16:00,-10.17,-22.58,-4.08,-12.61,-0.84,-9.40,-1.40,-15.80,-1.98,-13.78,-3.31,-12.39,-4.43,-11.05,-4.89,-10.14,-4.90,-7.96,-5.06,-5.20,-2.45,-4.14,-4.15,-2.96
2003-04-30 17:00,-10.03,-21.60,-4.48,-15.22,-0.11,-10.12,1.24,-14.83,2.02,-13.57,0.99,-11.78,-1.80,-9.67,-2.27,-8.04,-2.48,-6.22,-1.84,-5.21,-0.93,-4.74,-1.67,-5.06
2003-04-30 18:00,-13.61,-29.08,-6.49,-20.17,-2.83,-14.44,-1.26,-20.65,0.22,-19.29,1.17,-16.41,-0.12,-14.08,-0.83,-13.45,0.40,-12.99,0.12,-12.03,-0.31,-10.18,-0.28,-8.82
2003-04-30 19:00,-9.56,-26.15,-5.45,-17.27,-4.67,-13.82,-3.54,-22.13,-0.73,-17.06,2.39,-14.50,3.01,-12.66,1.52,-10.38,2.55,-9.98,4.00,-7.80,2.49,-5.42,1.89,-4.76
2003-04-30 20:00,-3.99,-19.45,-0.74,-11.55,1.00,-9.28,3.66,-21.11,2.57,-18.40,2.50,-12.70,4.35,-8.64,6.71,-6.71,6.90,-4.47,7.19,-3.66,9.18,-1.53,8.53,0.37
2003-04-30 21:00,-11.11,-19.31,-6.61,-12.51,-5.22,-9.72,-4.10,-19.80,-1.48,-19.15,-3.76,-17.00,-5.43,-11.54,-2.92,-6.87,-1.51,-4.91,-0.97,-4.23,1.53,-2.06,1.07,-0.84
2003-04-30 22:00,-12.66,-17.88,-6.76,-11.61,-4.02,-8.85,-5.41,-19.24,-4.17,-18.47,-4.57,-15.98,-6.36,-11.92,-5.38,-5.91,-3.28,-3.44,-1.78,-1.76,0.40,-1.03,-0.21,1.08
2003-04-30 23:00,-12.98,-14.23,-6.26,-7.93,-3.56,-7.16,-5.77,-15.07,-4.95,-13.59,-5.91,-11.68,-7.47,-7.34,-5.04,-2.38,-2.94,0.09,-0.65,1.89,0.86,4.62,-2.37,6.81
2003-05-01 00:00,-15.62,-16.65,-10.48,-11.33,-8.33,-10.50,-7.93,-14.44,-9.80,-13.00,-12.82,-8.98,-12.63,-5.29,-7.21,-2.80,-3.73,-1.49,-1.62,-0.15,-1.71,2.32,-0.84,4.02
2003-05-01 01:00,-15.13,-19.42,-9.33,-13.91,-7.63,-11.86,-12.77,-14.59,-14.12,-10.60,-14.28,-6.07,-10.31,-1.40,-7.40,-3.58,-5.93,-4.72,-4.76,-4.07,-3.45,-2.13,-4.30,0.12
2003-05-01 02:00,-7.04,-24.07,-6.80,-14.75,-5.42,-10.50,-5.08,-13.84,-6.43,-7.67,-4.29,-4.98,-3.33,-7.61,-2.31,-10.44,-0.79,-9.59,0.10,-8.71,0.32,-8.02,0.86,-5.89
2003-05-01 03:00,-8.43,-17.40,-7.09,-11.19,-6.27,-5.34,-6.75,0.67,-10.43,5.54,-9.81,3.01,-7.80,-1.09,-7.65,-2.71,-7.13,-2.36,-6.37,-1.72,-4.52,-2.75,-3.53,-3.30
2003-05-01 04:00,-12.23,-25.56,-8.35,-16.96,-4.33,-11.02,-7.03,-8.15,-11.00,-4.82,-10.21,-5.74,-9.87,-8.76,-9.32,-10.68,-8.49,-9.93,-6.84,-10.60,-6.42,-10.99,-4.89,-12.33
2003-05-01 05:00,-5.21,-20.64,-1.12,-11.35,2.55,-5.62,-0.86,-3.89,-4.79,-3.97,-2.87,-3.42,-1.00,-4.86,-0.34,-5.71,-0.28,-6.63,0.56,-7.02,1.42,-6.04,2.84,-6.99
2003-05-01 06:00,-3.54,-16.31,-3.77,-10.44,0.57,-5.97,5.79,-6.77,1.57,-2.57,-1.67,-2.14,0.26,-2.73,1.82,-3.43,0.54,-4.42,1.49,-4.46,2.55,-4.89,3.59,-4.90
2003-05-01 07:00,-1.68,-26.80,-0.63,-18.49,0.90,-12.22,3.25,-19.67,4.56,-16.27,2.07,-13.03,-1.55,-11.99,0.29,-12.61,1.22,-11.51,1.59,-13.90,0.16,-14.00,0.98,-14.28
2003-05-01 08:00,3.73,-12.66,4.03,-9.35,2.53,-3.75,4.41,-5.60,7.15,-2.42,6.29,1.28,4.43,2.31,5.40,1.13,5.20,1.80,4.72,1.67,3.20,0.81,3.30,0.84
2003-05-01 09:00,1.08,-25.18,2.04,-18.35,0.25,-15.01,1.53,-17.66,3.90,-12.51,4.76,-8.62,4.37,-5.09,3.48,-5.24,2.27,-4.65,2.35,-4.94,0.65,-6.99,-0.34,-7.90
2003-05-01 10:00,-2.50,-16.32,0.15,-9.94,-0.39,-6.98,-2.57,-9.89,-0.79,-6.68,1.31,-1.29,2.39,2.56,1.07,4.26,0.78,3.45,-0.84,4.02,-1.13,3.21,-1.34,3.57
2003-05-01 11:00,-2.79,-22.54,-2.02,-14.73,-0.88,-10.34,-1.09,-13.63,1.90,-9.54,4.33,-6.77,4.24,-5.34,2.68,-3.91,1.76,-2.51,1.61,-0.16,1.22,1.18,1.18,0.23
2003-05-01 12:00,-10.22,-10.42,-7.55,-5.60,-6.37,-3.18,-7.92,-7.58,-4.05,-5.11,-1.44,-3.33,-0.11,-1.07,0.12,1.39,-0.66,4.49,-2.34,5.99,-2.67,7.14,-2.24,5.29
2003-05-01 13:00,-8.00,-5.83,-6.45,-2.16,-7.55,-1.23,-10.46,-6.33,-7.12,-4.54,-4.69,-3.95,-2.91,-4.37,-2.47,-2.27,-1.77,0.74,-0.70,3.54,-0.20,4.31,-2.01,4.83
2003-05-01 14:00,-10.79,-8.82,-8.43,-3.98,-8.50,-1.92,-12.25,-7.36,-9.90,-7.21,-8.25,-7.88,-8.28,-7.05,-7.85,-5.27,-6.84,-3.73,-6.11,-0.82,-4.74,0.20,-3.60,-0.51
2003-05-01 15:00,-9.46,-9.47,-9.69,-3.20,-9.12,-2.30,-12.31,-6.76,-10.03,-6.73,-9.00,-7.06,-8.00,-5.83,-8.11,-6.18,-6.52,-5.93,-5.96,-5.35,-5.37,-3.41,-5.74,-2.48
2003-05-01 16:00,-7.15,-5.17,-7.35,0.60,-7.06,-0.78,-8.43,-6.16,-7.89,-5.49,-6.41,-6.31,-5.25,-6.71,-3.37,-4.92,-2.62,-4.29,-0.74,-4.68,-0.09,-4.40,0.76,-3.74
2003-05-01 17:00,-11.03,-4.72,-9.30,2.33,-9.74,3.14,-13.32,-2.16,-13.11,-3.24,-12.13,-3.06,-10.53,-2.08,-9.64,-2.66,-8.45,-2.11,-6.15,-1.76,-4.41,-2.41,-2.80,-3.30
2003-05-01 18:00,-6.06,-14.43,-7.29,-4.69,-7.73,-4.61,-6.35,-10.87,-6.39,-12.55,-6.04,-13.38,-5.65,-11.50,-5.07,-11.34,-2.39,-11.61,0.08,-12.98,1.04,-13.43,3.20,-14.06